Theta_e
309 307 307 308 308 308 309 309 311 310 310 312 311 310 309 307 302 301 300 299 298 298 297 295 294 295 296 298 300 302 304 307 311 313 313 311 310 310 312 314 316 320 321 322
309 308 307 307 307 309 309 311 311 310 309 310 310 310 308 304 303 301 300 299 298 297 295 294 293 294 294 294 295 297 299 303 305 306 304 304 304 302 302 303 305 309 311 313
310 312 310 310 310 311 311 311 311 312 310 309 309 310 310 304 302 301 299 298 297 295 294 293 292 292 293 293 295 296 297 298 300 302 304 304 304 303 301 300 299 300 301 302
310 310 312 311 312 311 315 310 311 312 311 314 308 312 307 306 304 301 299 296 295 294 293 293 292 291 291 292 292 293 294 296 297 298 298 297 295 293 293 294 295 297 298 298
314 312 311 312 312 311 314 309 310 310 309 308 308 309 306 305 306 302 298 297 295 294 293 292 291 290 290 291 291 291 291 291 291 292 293 291 289 288 288 289 290 290 291 292
311 308 309 311 308 309 308 308 308 306 306 311 309 310 310 309 307 302 299 296 295 294 292 292 291 290 289 289 289 289 288 288 288 288 288 287 287 286 286 286 286 286 285 285
311 310 309 308 309 308 308 310 313 312 311 315 309 310 309 305 303 303 299 296 294 293 292 291 291 290 288 288 289 288 288 287 287 287 286 286 285 285 285 284 284 285 284 284
312 316 309 307 309 309 307 310 313 310 311 311 309 313 310 302 299 299 297 295 294 293 292 291 291 290 288 287 287 288 287 287 286 286 285 285 285 285 285 285 285 285 285 285
312 314 308 307 308 309 309 311 308 310 294 306 311 309 305 301 300 298 297 295 294 293 292 291 291 290 289 288 287 287 287 286 286 285 285 286 286 286 286 285 285 285 285 285
311 315 310 309 308 307 309 307 312 308 308 310 310 310 309 304 301 299 298 297 296 294 292 291 291 291 289 288 287 286 286 286 286 286 286 286 286 285 285 285 285 285 285 285
311 312 312 311 311 310 309 310 309 309 307 305 304 306 304 305 302 300 299 297 296 295 293 291 290 290 289 288 287 287 286 286 286 286 286 286 286 286 286 285 285 285 284 284
312 311 310 311 307 305 307 308 309 312 309 306 307 310 304 303 301 299 299 298 295 294 293 291 290 289 289 288 287 287 287 287 287 287 287 287 287 286 286 285 285 284 284 283
310 309 304 308 306 308 308 307 306 306 303 301 308 308 303 301 300 299 299 297 295 293 291 290 288 288 288 288 287 287 287 287 287 287 287 287 286 286 285 285 284 283 282 282
310 307 309 315 307 307 307 306 305 304 307 305 308 308 305 303 301 299 298 297 296 294 290 289 287 287 288 288 288 287 287 287 287 287 286 286 285 284 284 284 283 281 281 280
308 306 306 305 304 305 305 305 304 304 305 308 307 307 304 302 301 298 295 293 295 293 288 288 288 288 288 288 288 287 287 287 287 286 286 285 285 284 284 283 282 280 279 278
303 305 302 300 305 306 307 305 304 305 304 303 303 303 300 297 294 293 292 293 295 295 291 287 287 287 288 289 289 288 287 287 286 286 285 284 284 284 283 281 280 278 277 276
303 302 303 309 297 297 300 298 302 302 300 301 301 301 290 293 293 292 291 290 291 292 291 289 287 288 288 289 289 288 287 286 286 285 285 285 284 283 280 279 277 276 275 274
303 302 302 298 295 302 300 292 293 296 296 292 291 288 289 292 293 291 289 289 288 288 287 286 287 288 289 289 288 287 286 286 285 285 284 283 281 279 278 277 275 274 273 271
298 300 297 302 292 295 297 293 291 291 291 291 292 292 292 291 288 287 287 285 286 285 286 288 289 289 288 288 287 286 285 285 284 283 281 279 278 276 275 274 273 271 270 269
297 297 303 288 295 296 295 290 289 290 290 286 288 289 288 287 287 289 286 285 285 287 288 289 289 288 286 286 286 285 284 282 281 279 278 276 275 274 273 271 270 270 268 267
292 295 301 293 299 290 288 288 289 288 291 284 285 288 286 287 288 288 286 285 287 288 288 289 287 287 287 285 284 282 281 280 279 277 275 274 273 272 271 270 269 268 267 265
291 291 290 288 292 292 289 288 291 291 288 288 286 287 287 287 288 286 286 285 286 286 288 288 287 286 285 284 282 280 279 277 276 274 272 272 272 271 270 268 268 267 266 264
291 290 289 291 290 290 288 290 289 289 288 288 288 287 287 287 287 286 285 285 285 286 287 288 286 284 283 281 279 278 276 274 272 271 271 271 270 269 269 268 268 266 264 263
288 286 289 288 288 288 288 288 288 288 288 288 288 288 286 286 286 287 285 285 285 286 285 286 284 281 280 278 277 275 273 272 270 270 269 269 268 268 267 267 266 264 264 263
289 287 287 287 289 288 288 287 288 288 287 287 286 287 286 285 286 286 286 284 285 285 284 284 281 279 278 276 274 272 271 270 269 268 268 267 267 266 266 266 266 264 264 264
288 290 289 288 289 290 290 288 287 287 287 287 286 286 285 285 286 285 284 285 285 283 282 279 279 278 276 274 272 270 269 268 268 267 267 266 265 265 264 264 264 267 265 267
Wind_Speed
1 4 7 13 11 3 2 4 4 3 5 1 6 5 12 8 9 8 7 7 8 8 10 19 24 27 29 31 32 32 31 30 26 20 20 25 26 24 23 23 19 14 11 9
4 7 13 4 5 5 2 2 5 6 4 3 6 10 3 7 5 5 8 7 7 5 7 14 22 27 32 32 34 35 34 31 28 25 23 19 17 26 27 24 25 22 21 19
8 6 5 7 4 5 4 5 5 8 3 1 3 6 2 5 8 10 8 6 6 6 6 8 16 23 27 31 34 35 36 34 31 28 21 20 18 23 26 27 26 25 22 20
5 4 4 4 5 7 4 8 7 3 3 4 1 5 6 5 5 5 5 6 6 6 5 7 12 19 22 24 27 31 33 34 32 30 32 32 31 28 24 24 23 23 22 22
7 5 4 5 8 6 7 4 4 2 2 3 4 1 6 6 3 5 5 5 6 5 6 6 11 15 17 21 23 27 30 30 30 29 30 31 31 27 26 27 27 28 27 27
6 2 4 6 3 6 5 4 6 4 3 1 7 7 4 5 3 6 5 6 6 6 5 7 10 13 16 19 22 25 27 28 27 27 28 29 29 27 27 27 29 29 28 29
1 4 2 2 5 3 4 5 2 4 2 5 3 1 7 4 5 10 12 9 8 7 6 5 7 10 14 17 18 21 22 24 23 25 26 27 27 26 27 26 26 26 27 28
7 3 8 4 6 6 6 7 5 7 3 4 2 6 5 1 4 9 11 9 7 8 7 6 8 10 12 14 15 17 18 19 20 22 23 22 22 23 23 22 22 23 23 23
6 4 2 3 2 5 5 5 3 5 2 3 4 4 2 3 4 4 6 7 9 8 7 8 11 11 12 12 12 13 14 16 17 18 18 19 18 19 19 19 19 20 20 21
5 2 1 1 2 3 4 6 4 2 2 5 4 5 5 7 10 7 7 9 8 8 7 7 11 12 11 11 11 11 12 14 14 14 14 15 15 15 15 16 18 20 20 22
5 4 2 3 5 8 2 2 3 3 5 6 2 6 5 11 13 14 11 9 9 8 7 6 13 13 12 11 11 10 10 10 10 10 10 10 11 13 14 16 17 19 20 21
5 4 4 8 1 1 3 7 7 5 6 3 1 12 5 6 11 11 10 10 7 6 7 10 15 15 14 12 11 9 8 7 6 6 5 6 8 11 15 17 18 20 22 23
8 1 2 6 4 2 4 4 4 4 4 7 6 6 3 4 7 8 8 7 7 9 8 7 13 16 16 14 13 11 10 7 5 3 0 3 6 9 13 17 20 22 23 24
3 5 8 13 6 5 5 5 5 5 3 4 12 5 2 4 7 6 7 6 8 8 8 7 9 17 18 17 16 15 13 11 9 8 5 4 6 10 14 19 22 24 25 29
4 5 2 1 4 4 3 5 9 8 7 11 8 12 6 10 9 8 8 7 7 7 8 10 9 15 19 19 19 17 16 15 12 9 7 6 8 12 17 21 24 26 29 32
1 2 3 2 2 1 5 7 9 10 7 8 9 17 7 5 6 5 7 7 7 8 7 7 9 13 17 21 22 21 18 15 13 11 9 7 11 16 20 23 26 30 33 34
6 6 4 7 2 3 8 12 15 10 6 8 11 17 2 6 7 7 8 8 8 7 7 8 9 17 21 24 25 22 17 15 13 11 9 12 15 18 21 24 28 31 33 35
6 5 2 3 2 6 3 2 3 8 10 7 3 3 6 4 2 4 5 6 7 6 6 6 12 14 17 19 22 19 16 16 12 11 11 14 16 18 22 26 28 30 31 33
3 6 4 4 5 7 9 5 7 7 9 9 10 8 4 2 2 5 4 5 6 7 13 17 18 19 18 17 16 17 17 15 12 11 12 13 15 19 21 22 25 27 30 32
3 4 4 3 5 8 6 2 5 5 6 7 7 7 6 5 1 7 6 6 9 14 13 13 16 18 17 18 20 20 19 15 13 12 12 14 16 17 19 21 23 25 26 30
4 1 9 6 7 8 6 5 3 6 8 5 8 7 7 5 7 5 5 7 16 20 19 18 18 21 23 22 22 20 17 15 12 12 13 13 13 15 17 19 20 23 26 27
7 7 4 2 3 9 7 6 8 5 1 6 6 7 7 9 9 7 8 8 14 19 21 19 19 22 24 24 22 19 17 14 14 13 12 12 12 13 16 18 20 22 24 26
2 7 6 11 8 1 7 6 12 5 6 6 6 7 8 8 9 11 8 10 15 21 25 25 23 23 24 24 21 18 15 15 14 13 11 11 12 13 14 17 20 23 22 22
4 4 4 4 4 5 7 7 5 6 8 6 6 6 7 10 12 12 9 9 10 20 24 24 23 24 27 24 20 17 15 14 13 12 11 11 12 13 13 15 18 20 22 20
6 8 5 2 4 3 8 8 7 8 8 7 7 8 10 10 13 11 9 8 17 22 20 24 27 27 28 23 19 16 14 13 12 11 11 11 12 13 15 15 17 19 21 19
6 7 4 5 8 6 6 6 9 9 12 12 9 8 9 10 13 10 11 19 20 19 19 21 25 25 22 20 18 15 14 13 12 12 11 11 12 13 15 16 22 17 16 17
Wind_Direction
44 118 205 203 200 198 165 187 227 267 261 317 255 248 274 320 79 104 98 85 71 53 30 36 42 50 55 58 58 56 55 53 62 70 74 66 63 61 59 54 47 41 30 7
59 219 230 135 179 205 218 244 260 274 266 164 280 275 11 32 45 103 106 88 78 67 40 40 46 56 60 58 57 57 58 59 63 69 70 71 72 63 58 59 54 49 42 36
177 213 156 169 166 161 210 189 222 221 353 269 325 289 166 50 82 80 71 81 72 70 57 31 40 54 60 62 65 67 66 63 63 69 81 79 67 51 42 40 42 42 41 39
237 256 182 168 199 148 224 208 205 203 127 225 79 275 301 139 113 85 107 104 106 91 70 58 55 59 65 68 72 71 69 71 70 71 72 72 70 65 55 51 48 44 39 35
235 181 175 187 214 157 236 117 154 118 131 57 301 295 259 124 180 177 161 145 134 123 118 97 85 86 80 77 76 78 77 73 72 72 74 77 77 71 66 61 58 52 48 45
235 263 183 206 83 150 137 88 53 57 112 293 223 184 266 187 191 162 173 161 154 148 129 113 100 87 81 79 77 76 75 74 73 71 71 72 69 64 61 56 53 47 43 41
234 219 195 165 94 77 98 80 327 333 358 230 137 144 247 301 315 185 163 172 177 168 158 143 114 96 87 82 83 84 82 80 78 75 72 70 68 64 58 52 49 45 38 31
166 252 167 190 190 175 176 157 167 224 211 255 43 234 253 309 343 133 156 163 162 177 181 163 151 122 107 101 95 94 91 90 83 76 73 69 63 59 55 49 40 37 33 26
151 264 127 170 146 148 187 170 165 93 57 45 233 296 266 74 44 100 152 173 194 191 184 178 166 148 135 120 110 102 99 90 81 76 70 65 59 53 47 39 32 28 20 15
197 134 159 136 111 25 159 167 90 42 282 255 256 264 223 206 197 191 202 219 213 201 193 183 177 164 154 140 128 119 106 97 89 80 71 64 56 48 39 27 19 13 7 0
145 124 226 115 199 185 141 190 68 132 154 191 254 253 212 196 181 187 200 214 221 216 200 189 185 179 165 158 151 136 117 103 94 82 70 57 44 34 24 15 8 359 352 349
192 136 168 196 230 338 284 196 166 190 240 258 164 259 8 163 178 174 191 211 218 218 208 197 189 179 179 177 170 160 145 130 112 92 66 36 17 7 3 359 352 346 341 339
180 189 53 345 7 22 225 206 151 102 74 202 192 259 17 93 147 189 190 212 220 212 212 192 190 192 192 192 189 186 185 177 170 169 110 1 349 346 346 344 340 337 333 331
136 160 178 230 190 134 178 197 180 149 171 178 234 265 202 193 190 197 230 250 237 221 192 195 198 202 203 201 202 204 205 209 215 222 241 292 322 330 333 334 332 331 331 330
143 219 120 219 158 144 212 197 182 192 212 213 230 225 185 202 210 220 235 246 253 215 197 201 202 208 210 211 213 216 219 219 220 225 241 269 302 319 323 323 323 324 325 324
125 162 89 313 295 15 264 226 199 231 234 250 265 270 248 172 212 201 211 214 214 223 216 206 214 213 217 221 223 223 227 226 224 226 229 268 298 310 315 316 319 320 321 322
149 133 126 238 66 66 284 224 213 219 199 210 227 246 141 222 198 217 220 200 207 208 206 207 213 221 228 230 232 232 232 222 210 216 250 281 297 304 311 316 318 321 322 322
134 114 144 143 107 223 260 130 125 227 243 208 267 229 213 223 251 247 225 195 204 198 211 224 225 229 236 239 235 235 214 204 213 237 263 281 293 302 310 314 317 319 320 320
139 138 161 192 194 322 284 195 167 173 257 195 212 223 209 121 33 291 222 204 204 206 225 231 230 231 234 226 216 199 196 208 222 245 264 278 290 303 308 311 315 319 319 319
124 46 187 133 179 215 257 58 109 100 276 213 173 184 188 122 168 264 214 207 225 221 212 224 239 242 237 222 207 202 204 212 225 242 258 276 295 301 307 313 315 316 317 315
114 159 216 210 234 283 218 203 146 116 252 166 175 185 152 181 212 220 189 205 216 219 231 244 249 242 234 215 203 204 209 221 235 246 260 279 291 301 307 309 313 315 317 315
155 158 194 88 209 267 159 79 173 203 217 175 189 199 184 216 239 215 210 217 217 229 237 247 239 230 226 214 207 209 217 229 238 252 269 282 291 301 307 309 315 317 318 316
221 191 183 188 203 189 198 188 220 169 175 204 193 208 204 224 230 230 222 216 226 235 245 251 234 221 217 210 211 214 222 227 242 253 268 282 294 301 307 312 316 318 317 312
256 164 213 106 200 208 214 240 241 203 228 229 217 226 200 222 234 235 228 239 234 242 234 234 216 210 208 209 212 220 225 235 245 257 270 285 296 304 311 313 315 311 310 308
195 148 157 230 255 174 243 231 231 233 234 250 241 228 232 215 240 229 239 232 240 242 231 220 212 209 210 207 214 224 235 241 248 259 277 290 296 306 312 312 314 308 306 302
173 190 165 214 218 202 230 213 214 225 246 246 235 259 245 211 235 235 236 243 241 234 223 210 211 212 206 207 215 227 238 243 250 258 273 286 297 307 309 312 317 317 300 305